Location: Kott?ru
(16.6209°N, 80.6208°E)
Time: 13:31:50
(UTC+00:00)

CZ-3 Stage 3 - Pass Details

Date: 18 September 2020
Orbit: 520 x 34983 km, 30.7° (Epoch: 29 October)

Event Time Altitude Azimuth Distance (km) Brightness Sun altitude
Exits shadow 22:42:17 31° 168° (SSE) 1,152 4.4 -25.6°
Drops below altitude 10° 22:46:05 10° 136° (SE) 2,914 6.9 -24.7°
Sets 22:50:57 0° 128° (SE) 5,326 8.4 -23.5°
